www.pogodaiklimat.ru

Погода и климат >> Архив погоды >> Венгрия >> Тат


ПОГОДА в Тате

  • Прогноз погоды в Тате
  • Монитор погоды в Тате

АРХИВ ПОГОДЫ в Тате

Время (UTC), дата Ветер
(напр.,м/с)
 
Видим.   Явления Облачность Т
(С)
Тd
(С)
f
(%)
Тe
(С)
Тes
(С)
Комфортность P
(гПа)
Po
(гПа)
Тmin
(С)
Tmax
(С)
R
(мм)
R24
(мм)
S
(см)
22 13.06 В 1 н/о н/о +21.8 +19.5 87 +27 +27 душно 1014.9 1001.9
23 13.06 В 1 н/о н/о +20.3 +19.0 92 +25 +25 комфорт 1014.6 1001.6
00 14.06 ЮВ 2 н/о н/о +21.5 +18.1 81 +26 +26 душно 1014.2 1001.2
01 14.06 ЮВ 2 н/о н/о +21.2 +17.2 78 +25 +25 комфорт 1014.3 1001.3
02 14.06 ЮВ 1 н/о н/о +19.5 +17.5 88 +23 +23 комфорт 1014.8 1001.7
03 14.06 ЮЗ 1 н/о н/о +18.8 +17.1 90 +21 +21 комфорт 1015.3 1002.2
04 14.06 штиль 0 н/о н/о +19.8 +18.1 90 +22 +22 комфорт 1016.0 1002.9
05 14.06 штиль 0 н/о н/о +20.4 +18.2 87 +24 +24 комфорт 1016.1 1003.1
06 14.06 СВ 1 н/о н/о +23.5 +18.8 75 +28 +28 душно 1016.5 1003.6 +18.8
07 14.06 штиль 0 н/о н/о +26.3 +18.2 61 +31 +31 душно 1016.7 1003.9
08 14.06 штиль 0 н/о н/о +27.9 +16.8 51 +32 +32 душно 1017.1 1004.4
09 14.06 СВ 1 н/о н/о +28.8 +17.0 49 +33 +33 очень
душно
1017.3 1004.6
10 14.06 В 1 н/о н/о +29.5 +17.0 47 +33 +33 душно 1017.6 1004.9
11 14.06 Ю 2 н/о н/о +32.0 +13.3 32 +33 +33 жарко 1017.3 1004.7
12 14.06 Ю 3 н/о н/о +32.3 +14.0 33 +34 +34 душно 1016.8 1004.3
13 14.06 С 1 н/о н/о +31.0 +15.4 39 +33 +33 душно 1016.5 1003.9
14 14.06 С 1 н/о н/о +32.5 +13.7 32 +34 +34 очень
жарко
1016.4 1003.9
15 14.06 Ю 2 н/о н/о +33.0 +13.1 30 +34 +34 очень
жарко
1016.0 1003.5
16 14.06 СЗ 1 н/о н/о +31.2 +14.4 36 +33 +33 жарко 1015.9 1003.3
17 14.06 З 1 н/о н/о +29.8 +17.3 47 +34 +34 очень
душно
1015.8 1003.2
18 14.06 штиль 0 н/о н/о +27.2 +17.1 54 +31 +31 душно 1016.0 1003.3 +33.5
19 14.06 СВ 1 н/о н/о +23.0 +17.7 72 +28 +28 душно 1016.6 1003.7
20 14.06 штиль 0 н/о н/о +21.2 +18.4 84 +25 +25 комфорт 1017.2 1004.2
21 14.06 штиль 0 н/о н/о +20.6 +18.0 85 +24 +24 комфорт 1017.0 1004.0
22 14.06 штиль 0 н/о н/о +19.2 +17.5 90 +21 +21 комфорт 1016.9 1003.8
23 14.06 Ю 1 н/о н/о +18.9 +17.9 94 +21 +21 комфорт 1016.5 1003.4
00 15.06 штиль 0 н/о н/о +18.2 +17.2 94 +19 +19 1016.0 1002.9
01 15.06 ЮВ 1 н/о н/о +17.4 +16.8 96 +18 +18 1016.2 1003.0
02 15.06 СВ 1 н/о н/о +18.1 +16.6 91 +19 +19 1015.9 1002.8
03 15.06 СВ 1 н/о н/о +17.3 +16.3 94 +18 +18 1016.0 1002.8
04 15.06 Ю 2 н/о н/о +18.1 +16.6 91 +19 +19 1016.1 1003.0
05 15.06 В 1 н/о н/о +19.9 +17.5 86 +24 +24 комфорт 1015.5 1002.5
06 15.06 СВ 1 н/о н/о +23.7 +17.4 68 +28 +28 душно 1015.3 1002.4 +16.6
07 15.06 СВ 1 н/о н/о +26.0 +19.9 69 +32 +32 очень
душно
1015.1 1002.3
08 15.06 ЮВ 3 н/о н/о +30.0 +18.1 49 +35 +35 очень
душно
1014.7 1002.1
09 15.06 Ю 5
{7}
н/о н/о +31.2 +14.4 36 +33 +33 жарко 1014.8 1002.2
10 15.06 Ю 5
{8}
н/о н/о +32.1 +14.3 34 +34 +34 душно 1014.8 1002.3
11 15.06 Ю 4
{8}
н/о н/о +32.4 +13.6 32 +34 +34 очень
жарко
1014.1 1001.6
12 15.06 ЮВ 5
{8}
н/о н/о +32.2 +13.9 33 +34 +34 душно 1013.6 1001.1
13 15.06 Ю 3
{7}
н/о н/о +32.1 +15.2 36 +34 +34 душно 1013.3 1000.8
14 15.06 Ю 3 н/о н/о +32.9 +14.0 32 +34 +34 очень
жарко
1013.0 1000.5
15 15.06 Ю 3 н/о н/о +31.9 +15.8 38 +35 +35 очень
душно
1012.7 1000.2
16 15.06 Ю 3 н/о н/о +31.9 +13.2 32 +33 +33 жарко 1012.4 999.9
17 15.06 ЮВ 2 н/о н/о +30.2 +13.9 37 +32 +32 жарко 1012.1 999.5
18 15.06 ЮВ 2 н/о н/о +26.7 +16.3 53 +30 +30 душно 1011.8 999.1 +33.1
19 15.06 ЮВ 2 н/о н/о +25.2 +16.1 57 +29 +29 душно 1011.7 998.9
20 15.06 ЮВ 2 н/о н/о +24.5 +15.2 56 +27 +27 жарко 1012.4 999.6
21 15.06 штиль 0 н/о н/о +21.7 +16.2 71 +25 +25 комфорт 1012.9 1000.0
22 15.06 В 1 н/о н/о +20.4 +16.6 79 +25 +25 комфорт 1013.0 1000.0
23 15.06 штиль 0 н/о н/о +19.1 +16.3 84 +21 +21 комфорт 1013.0 1000.0
00 16.06 Ю 1 н/о н/о +18.6 +16.4 87 +21 +21 комфорт 1013.2 1000.1
01 16.06 В 1 н/о н/о +18.3 +16.5 89 +20 +20 1012.9 999.8
02 16.06 СВ 1 н/о н/о +18.1 +17.0 93 +19 +19 1012.5 999.4
03 16.06 ЮВ 1 н/о н/о +17.9 +16.4 91 +19 +19 1012.5 999.4
04 16.06 В 1 н/о н/о +18.8 +17.5 92 +21 +21 комфорт 1012.8 999.7
05 16.06 штиль 0 н/о н/о +20.5 +17.3 82 +24 +24 комфорт 1012.9 999.9
06 16.06 В 1 н/о н/о +23.3 +18.0 72 +29 +29 душно 1013.0 1000.1 +17.4
07 16.06 штиль 0 н/о н/о +25.2 +18.9 68 +30 +30 душно 1013.4 1000.6
08 16.06 С 1 н/о н/о +29.2 +18.6 53 +34 +34 очень
душно
1013.6 1001.0
09 16.06 З 3
{8}
н/о н/о +28.2 +20.0 61 +34 +34 очень
душно
1014.0 1001.3
10 16.06 З 4
{8}
н/о н/о +27.6 +19.4 61 +33 +33 очень
душно
1014.4 1001.7
11 16.06 З 3
{8}
н/о н/о +28.2 +20.5 63 +35 +35 очень
душно
1014.3 1001.6
12 16.06 СЗ 3
{8}
н/о н/о +28.7 +19.6 58 +35 +35 очень
душно
1013.6 1001.0
13 16.06 СЗ 3
{8}
н/о н/о +28.5 +18.3 54 +33 +33 очень
душно
1013.7 1001.0
14 16.06 СЗ 3 н/о н/о +27.7 +18.7 58 +33 +33 очень
душно
1013.3 1000.6
15 16.06 СЗ 4
{10}
н/о н/о +26.4 +18.0 60 +31 +31 душно 1013.8 1001.1
16 16.06 З 3
{7}
н/о н/о +25.7 +17.1 59 +30 +30 душно 1014.9 1002.1
17 16.06 З 3
{7}
н/о н/о +25.7 +17.4 60 +30 +30 душно 1014.6 1001.8
18 16.06 З 3
{7}
н/о н/о +25.1 +16.8 60 +29 +29 душно 1014.4 1001.6 +29.5
19 16.06 СЗ 1 н/о н/о +24.0 +16.5 63 +27 +27 жарко 1014.9 1002.0
20 16.06 З 2 н/о н/о +22.9 +18.0 74 +28 +28 душно 1015.7 1002.8
21 16.06 В 3
{13}
н/о н/о +18.2 +18.0 99 +19 +19 1017.5 1004.4
22 16.06 З 2 н/о н/о +18.7 +18.4 98 +20 +20 1017.5 1004.4
23 16.06 Ю 2
{7}
н/о н/о +18.5 +17.7 95 +20 +20 1017.0 1003.9
00 17.06 С 2 н/о н/о +18.5 +18.0 97 +20 +20 1017.6 1004.5 26
01 17.06 СВ 1
{8}
н/о н/о +18.7 +18.4 98 +21 +21 комфорт 1018.3 1005.2
02 17.06 Ю 1 н/о н/о +18.3 +18.1 99 +20 +20 1017.7 1004.6
03 17.06 штиль 0 н/о н/о +17.8 +17.8 100 +18 +18 1018.1 1004.9
04 17.06 З 1 н/о н/о +18.7 +18.5 99 +21 +21 комфорт 1017.5 1004.4
05 17.06 СЗ 1 н/о н/о +19.6 +19.4 99 +23 +23 комфорт 1017.9 1004.8
06 17.06 СЗ 1 н/о н/о +21.0 +19.5 91 +27 +27 душно 1018.3 1005.3 +17.7 27
07 17.06 С 1 н/о н/о +22.8 +18.1 75 +28 +28 душно 1018.3 1005.3
08 17.06 СВ 1 н/о н/о +23.8 +18.2 71 +28 +28 душно 1018.3 1005.4
09 17.06 В 1 н/о н/о +25.6 +17.8 62 +30 +30 душно 1018.4 1005.6
10 17.06 В 1 н/о н/о +24.9 +16.9 61 +29 +29 душно 1018.5 1005.6
11 17.06 В 1 н/о н/о +25.4 +17.6 62 +30 +30 душно 1018.1 1005.3
12 17.06 штиль 0 н/о н/о +26.8 +16.1 52 +30 +30 душно 1017.8 1005.0
13 17.06 СВ 2 н/о н/о +25.3 +18.0 64 +30 +30 душно 1017.9 1005.1
14 17.06 В 1
{7}
н/о н/о +23.2 +18.1 73 +29 +29 душно 1018.3 1005.4
15 17.06 СВ 1 н/о н/о +23.0 +17.9 73 +28 +28 душно 1017.5 1004.6
16 17.06 В 2 н/о н/о +22.9 +17.6 72 +28 +28 душно 1017.2 1004.3
17 17.06 В 1 н/о н/о +23.2 +17.4 70 +29 +29 душно 1017.2 1004.3
18 17.06 ЮВ 1 н/о н/о +22.1 +16.8 72 +26 +26 душно 1017.3 1004.3 +26.9
19 17.06 ЮЗ 1 н/о н/о +20.2 +16.8 81 +24 +24 комфорт 1017.8 1004.7
20 17.06 ЮВ 1 н/о н/о +19.6 +18.3 92 +23 +23 комфорт 1018.0 1004.9
21 17.06 С 1 н/о н/о +18.8 +17.8 94 +21 +21 комфорт 1018.2 1005.1
22 17.06 штиль 0 н/о н/о +18.6 +17.9 96 +20 +20 1018.1 1005.0
23 17.06 штиль 0 н/о н/о +18.2 +17.9 98 +19 +19 1017.8 1004.7
00 18.06 штиль 0 н/о н/о +18.2 +18.0 99 +19 +19 1017.8 1004.7
01 18.06 штиль 0 н/о н/о +16.9 +16.7 99 +17 +17 1017.5 1004.3
02 18.06 штиль 0 н/о н/о +16.4 +16.2 99 +16 +16 1017.5 1004.3
03 18.06 штиль 0 н/о н/о +15.6 +15.3 98 +15 +15 1017.9 1004.6
04 18.06 штиль 0 н/о н/о +16.7 +16.2 97 +17 +17 1017.8 1004.6
05 18.06 штиль 0 н/о н/о +18.5 +13.8 74 +19 +19 1017.8 1004.7
06 18.06 штиль 0 н/о н/о +21.6 +15.0 66 +25 +25 комфорт 1017.9 1004.9 +15.4
07 18.06 штиль 0 н/о н/о +22.5 +14.4 60 +26 +26 жарко 1017.9 1004.9
08 18.06 С 1 н/о н/о +23.7 +14.1 55 +26 +26 жарко 1017.8 1004.9
09 18.06 СВ 1 н/о н/о +24.6 +16.1 59 +28 +28 душно 1017.7 1004.8
10 18.06 С 1 н/о н/о +26.2 +15.3 51 +29 +29 жарко 1017.3 1004.5
11 18.06 СВ 1 н/о н/о +25.8 +14.9 51 +29 +29 душно 1017.1 1004.3
12 18.06 СВ 1 н/о н/о +27.0 +14.7 47 +30 +30 душно 1016.4 1003.7
13 18.06 В 1 н/о н/о +26.6 +15.9 52 +30 +30 душно 1015.8 1003.0
14 18.06 В 1 н/о н/о +26.9 +15.9 51 +30 +30 душно 1015.2 1002.5
15 18.06 С 1 н/о н/о +28.5 +15.4 45 +31 +31 душно 1014.7 1002.0
16 18.06 СЗ 1 н/о н/о +27.9 +16.5 50 +31 +31 душно 1014.4 1001.7
17 18.06 СЗ 1 н/о н/о +27.2 +15.2 48 +30 +30 душно 1014.4 1001.7
18 18.06 штиль 0 н/о н/о +24.7 +16.7 61 +28 +28 душно 1014.8 1002.0 +28.8
19 18.06 штиль 0 н/о н/о +21.7 +17.7 78 +26 +26 душно 1015.4 1002.4
20 18.06 В 1 н/о н/о +20.7 +18.8 89 +26 +26 душно 1015.6 1002.6
21 18.06 Ю 2 н/о н/о +21.6 +17.2 76 +26 +26 душно 1015.4 1002.4
22 18.06 ЮВ 2 н/о н/о +21.3 +18.1 82 +26 +26 душно 1015.2 1002.2
23 18.06 ЮВ 1 н/о н/о +19.8 +17.9 89 +24 +24 комфорт 1015.4 1002.4
00 19.06 В 1 н/о н/о +19.2 +17.5 90 +22 +22 комфорт 1015.1 1002.0
01 19.06 штиль 0 н/о н/о +18.2 +17.2 94 +19 +19 1014.5 1001.4
02 19.06 В 1 н/о н/о +17.9 +17.6 98 +19 +19 1014.6 1001.5
03 19.06 ЮВ 1 н/о н/о +17.5 +17.2 98 +19 +19 1014.4 1001.3
04 19.06 штиль 0 н/о н/о +18.2 +17.9 98 +19 +19 1014.5 1001.4
05 19.06 В 1 н/о н/о +19.4 +18.6 95 +23 +23 комфорт 1014.7 1001.6
06 19.06 В 1 н/о н/о +21.6 +18.0 80 +26 +26 душно 1014.6 1001.6 +17.3
07 19.06 ЮВ 3 н/о н/о +24.8 +17.5 64 +29 +29 душно 1014.4 1001.6
08 19.06 Ю 2 н/о н/о +26.2 +18.1 61 +31 +31 очень
душно
1014.1 1001.3
09 19.06 ЮВ 2 н/о н/о +27.3 +18.9 60 +32 +32 очень
душно
1013.6 1000.9
10 19.06 ЮВ 2 н/о н/о +28.7 +19.6 58 +35 +35 очень
душно
1013.1 1000.5
11 19.06 Ю 3 н/о н/о +28.8 +18.0 52 +33 +33 очень
душно
1012.7 1000.1
12 19.06 Ю 3 н/о н/о +29.1 +17.0 48 +33 +33 очень
душно
1012.0 999.4
13 19.06 ЮЗ 3 н/о н/о +27.0 +18.0 58 +32 +32 очень
душно
1012.0 999.3
14 19.06 С 1
{13}
н/о н/о +19.6 +18.3 92 +23 +23 комфорт 1012.7 999.7
15 19.06 В 1 н/о н/о +19.9 +19.1 95 +24 +24 комфорт 1012.2 999.2
16 19.06 В 1 н/о н/о +20.8 +18.9 89 +26 +26 душно 1011.8 998.8
17 19.06 Ю 4 н/о н/о +21.5 +18.5 83 +26 +26 душно 1012.0 999.1
18 19.06 В 1 н/о н/о +21.3 +18.3 83 +26 +26 душно 1011.9 999.0 +29.3 3
19 19.06 В 1 н/о н/о +19.7 +18.4 92 +23 +23 комфорт 1012.5 999.5
20 19.06 штиль 0 н/о н/о +19.4 +18.6 95 +22 +22 комфорт 1012.7 999.7
21 19.06 ЮВ 3 н/о н/о +20.0 +18.5 91 +23 +23 комфорт 1012.7 999.7
22 19.06 ЮВ 2 н/о н/о +19.9 +18.4 91 +23 +23 комфорт 1012.3 999.3
23 19.06 Ю 2 н/о н/о +19.1 +18.4 96 +21 +21 комфорт 1012.2 999.2
00 20.06 штиль 0 н/о н/о +18.3 +17.8 97 +19 +19 1012.2 999.1
01 20.06 штиль 0 н/о н/о +18.1 +17.9 99 +18 +18 1012.4 999.3
02 20.06 ЮВ 2 н/о н/о +17.8 +17.8 100 +18 +18 1011.9 998.8
03 20.06 ЮВ 1 н/о н/о +18.0 +17.8 99 +19 +19 1012.0 998.9
04 20.06 штиль 0 н/о н/о +18.4 +18.4 100 +19 +19 1012.2 999.1
05 20.06 ЮВ 2 н/о н/о +19.4 +18.7 96 +22 +22 комфорт 1012.7 999.7
06 20.06 ЮВ 1 н/о н/о +20.8 +19.3 91 +26 +26 душно 1013.0 1000.0 +17.6
07 20.06 ЮВ 4
{7}
н/о н/о +22.2 +17.8 76 +27 +27 душно 1012.7 999.8
08 20.06 ЮВ 3 н/о н/о +24.0 +18.4 71 +28 +28 душно 1012.7 999.9
09 20.06 ЮВ 2 н/о н/о +25.2 +18.6 67 +30 +30 душно 1013.1 1000.3
10 20.06 В 1 н/о н/о +24.8 +18.5 68 +29 +29 душно 1013.0 1000.2
11 20.06 Ю 1 н/о н/о +26.4 +18.3 61 +31 +31 душно 1012.8 1000.1
12 20.06 Ю 2 н/о н/о +26.9 +19.5 64 +33 +33 очень
душно
1012.0 999.3
13 20.06 ЮВ 1 н/о н/о +27.1 +17.9 57 +32 +32 очень
душно
1011.5 998.8
14 20.06 СВ 1 н/о н/о +27.6 +18.9 59 +33 +33 очень
душно
1011.0 998.3
15 20.06 штиль 0 н/о н/о +27.8 +19.1 59 +33 +33 очень
душно
1010.7 998.1
17 20.06 штиль 0 н/о н/о +25.2 +18.6 67 +30 +30 душно 1011.5 998.7
18 20.06 В 1 н/о н/о +23.5 +18.6 74 +28 +28 душно 1012.0 999.2 +28.2
19 20.06 ЮВ 2 н/о н/о +21.5 +17.9 80 +26 +26 душно 1012.9 1000.0
20 20.06 ЮВ 2 н/о н/о +20.6 +17.2 81 +25 +25 комфорт 1013.3 1000.3

 

Местоположение метеостанции Тат (Венгрия): широта 47.75 долгота 18.60 высота над уровнем моря 109 м.

В архиве по умолчанию представлена погода в Тате за последнюю неделю. Архивные данные за месяц целиком и за предыдущие месяцы, начиная с января 2011 года, Вы можете получить, выбрав интересующий диапазон дат из раскрывающегося списка и нажав кнопку "Ввод!".


*Определитесь, кто Вы:
робот инопланетянин человек

Внимание! Время в таблицах - всемирное. Для получения местного времени необходимо прибавить поправку, которая равна 1 ч.

Смотрите также архив погоды в соседних городах и на ближайших метеорологических станциях:

Погода в Тате (Венгрия) (24 км)
Погода в Гурбаново (Словакия) (33 км)
Погода в Дудинце (Словакия) (51 км)
Погода в Будапеште (Венгрия) (56 км)
Погода в Моховце (Словакия) (60 км)
Погода в Пер аэропорту (Венгрия) (61 км)
Погода в Агарде (Венгрия) (63 км)
Погода в Нитре (Словакия) (69 км)
Погода в Дьере (Венгрия) (69 км)
Погода в Сечене (Польша) (80 км)

Пояснения к столбцам:

Ветер - указаны скорость ветра в м/с - средняя за 10 мин, порывы в срок и между сроками (в фигурных скобках) и направление, откуда дует ветер: С - северный, СВ - северо-восточный, В - восточный, ЮВ - юго-восточный, Ю - южный, ЮЗ - юго-западный, З - западный, СЗ - северо-западный.
Видимость - горизонтальная дальность видимости в метрах или километрах. При видимости от 1 до 10 км при отсутствии осадков обычно наблюдается дымка, при ухудшении видимости до 1 км и менее - туман. В сухую погоду видимость может ухудшаться дымом, пылью или мглою.
Явления - указаны атмосферные явления, наблюдавшиеся в срок или в последний час перед сроком; фигурными скобками обозначены явления, наблюдавшиеся между сроками (за 1-3 часа до срока); квадратными скобками обозначены град или гололедные отложения с указанием их диаметра в мм.
Облачность - указаны через наклонную черту общая и нижняя облачность в баллах и высота нижней границы облаков в метрах; квадратными скобками обозначены формы облаков: Ci - перистые, Cs - перисто-слоистые, Cc - перисто-кучевые, Ac - высококучевые, As - высокослоистые, Sc - слоисто-кучевые, Ns - слоисто-дождевые, Cu - кучевые, Cb - кучево-дождевые. Подробнее классификацию облаков см. в Атласе облаков (PDF).
T - Температура воздуха - температура, измеренная на высоте 2 м над землей.
Td - Температура точки росы - температура, при понижении до которой содержащийся в воздухе водяной пар достигнет насыщения.
f - Относительная влажность воздуха - влажноcть воздуха, измеренная на высоте 2 м над землей.
Te - Эффективная температура - температура, которую ощущает одетый по сезону человек в тени. Характеристика душности погоды. При расчете учитывается влияние влажности воздуха и скорости ветра на теплоощущения человека.
Tes - Эффективная температура на солнце - температура, которую ощущает человек, с поправкой на солнечный нагрев. Характеристика знойности погоды. Зависит от высоты солнца над горизонтом, облачности и скорости ветра. Ночью, в пасмурную погоду, а также при ветре 12 м/с и более поправка равна нулю.
P - Атмосферное давление - приведенное к уровню моря атмосферное давление.
Po - Атмосферное давление - измеренное на уровне метеостанции атмосферное давление.
Tmin - Минимальная температура - минимум температуры воздуха на высоте 2 м над землей.
Tmax - Максимальная температура - максимум температуры воздуха на высоте 2 м над землей.
R - Количество осадков - Количество выпавших осадков за период времени, мм. При наведении курсора мыши на число - период времени, за который выпало указанное количество осадков.
R24 - Количество осадков - Количество выпавших осадков за 24 часа, мм.
S - Снежный покров - Высота снежного покрова, см. При наведении курсора мыши на число - состояние снежного покрова и степень покрытия местности в баллах.